[[{"header":{"parameterUnit":"m.s-1","parameterCategory":1,"la1":30.2991,"la2":30.254,"lo1":-89.0895,"lo2":-89.0444,"dy":0.0017,"dx":0.0017,"nx":28,"ny":28,"refTime":"2023-08-09T03:00:00:Z","depth":0,"parameterNumber":2,"parameterNumberName":"U-component_of_WINDS"},"data":[0,0,0,0,0,0,0,0,0,0,0,0,0,0,0,0,0,0,0,0,0,0,0,0,0,0,0,0,0,0,0,0,0,0,0,0,0,0,0,0,0,0,0,0,0,0,0,0,0,0,0,0,0,0,0,0,0,0,2.3387,2.3387,0,2.34,2.34,2.34,2.3313,2.3311,2.3308,2.3306,2.3322,2.3325,2.3327,0,0,0,0,0,0,0,0,0,0,0,0,0,2.3287,2.3289,2.3387,2.3387,2.3387,2.34,2.34,2.34,2.3314,2.3311,2.3308,2.3305,2.3321,2.3324,2.3328,0,0,0,0,0,0,0,0,0,0,0,0,0,2.3318,2.329,2.3387,2.3345,2.3342,2.34,2.34,2.34,2.3314,2.331,2.3307,2.3303,2.332,2.3324,2.3328,2.3428,0,0,2.3341,2.3342,0,0,0,0,0,0,0,0,2.3317,2.3322,2.3351,2.3348,2.3344,2.3351,2.3371,2.341,2.3315,2.3325,2.3306,2.3301,2.3335,2.3337,2.3348,2.3428,2.3429,2.3341,2.3343,2.3345,2.3346,0,0,0,0,0,0,0,2.3315,2.3321,2.3392,2.3352,2.3348,2.3326,2.3326,2.3378,2.3351,2.3324,2.3317,2.332,2.3332,2.3344,2.3348,2.3429,2.3341,2.3344,2.3347,2.3349,2.3589,2.3593,0,0,0,0,0,0,2.3318,2.332,2.3392,2.3392,2.3321,2.3331,2.3331,2.3353,2.335,2.3346,2.3323,2.3316,2.3339,2.3343,2.3348,2.3463,2.3345,2.3349,2.3351,2.3585,2.359,2.3594,0,0,0,0,0,0,2.3316,2.3325,2.3391,2.3354,2.3361,2.3337,2.3361,2.3355,2.3367,2.3349,2.3344,2.3341,2.3336,2.3342,2.3408,2.3462,2.3351,2.3355,2.358,2.3587,2.3592,2.3694,0,0,0,0,0,0,2.3313,2.3325,2.3363,2.3356,2.3363,2.3451,2.3365,2.3358,2.3374,2.3365,2.3364,2.3361,2.3334,2.3402,2.3412,2.3466,2.3358,2.3575,2.3583,2.359,2.3686,2.3703,2.3717,0,0,0,0,0,2.331,2.3392,2.3365,2.3374,2.341,2.3454,2.3458,2.3425,2.3379,2.3416,2.3404,2.3361,2.3455,2.3409,2.342,2.3476,2.3572,2.3581,2.359,2.3679,2.37,2.3717,0,0,0,0,0,0,2.3408,2.3391,2.336,2.3443,2.345,2.3439,2.3486,2.3449,2.3471,2.3461,2.342,2.3421,2.3493,2.3491,2.3441,2.3571,2.3505,2.3516,2.3569,2.3589,2.3604,2.3604,2.3361,0,0,0,0,0,2.3438,2.3475,2.3458,2.3533,2.3538,2.3511,2.3529,2.3503,2.351,2.3513,2.3506,2.3515,2.3545,2.3567,2.3595,2.3685,2.3683,2.3728,2.3744,2.3757,2.3768,2.3813,2.3833,2.3623,2.3623,2.3623,0,0,2.3503,2.3498,2.3524,2.3552,2.3555,2.3593,2.3515,2.356,2.3588,2.352,2.358,2.3575,2.3582,2.366,2.3694,2.366,2.3825,2.3768,2.3779,2.3782,2.3824,2.3844,2.3862,2.3629,2.3628,2.3627,0,0,2.3641,2.3641,2.3701,2.3705,2.371,2.3691,2.3706,2.37,2.3693,2.3753,2.3702,2.3735,2.379,2.3796,2.3807,2.3943,2.3903,2.3953,2.4036,2.4081,2.4097,2.4112,2.4159,2.4177,2.3964,2.3964,2.3964,0,2.3721,2.3777,2.3738,2.3785,2.3798,2.3736,2.3797,2.3802,2.3817,2.3827,2.3789,2.3855,2.3856,2.3933,2.3965,2.3977,2.3991,2.3954,2.4098,2.4112,2.4125,2.417,2.4188,2.397,2.3969,2.3969,2.3968,0,2.3874,2.3913,2.3962,2.3975,2.3993,2.4047,2.4016,2.4039,2.4011,2.3996,2.4057,2.4054,2.408,2.4096,2.4069,2.4169,2.4148,2.4105,2.4038,2.4151,2.4193,2.421,2.3978,2.3976,2.3975,2.3973,0,0,2.4076,2.4064,2.4082,2.4086,2.4085,2.4115,2.4165,2.4188,2.4208,2.422,2.4261,2.4307,2.4266,2.4278,2.4251,2.4291,2.4397,2.4242,2.4242,2.427,2.4505,2.4537,2.4558,2.437,2.4373,2.4376,2.4504,0,2.4209,2.4293,2.4258,2.4346,2.4381,2.4321,2.4365,2.4369,2.4356,2.4384,2.4369,2.4403,2.4347,2.4353,2.4389,2.4377,2.4443,2.4367,2.4408,2.441,2.4408,2.458,2.4615,2.4736,2.452,2.4523,2.4525,0,2.4376,2.4392,2.4483,2.4472,2.4486,2.4526,2.4543,2.457,2.4573,2.456,2.4572,2.4536,2.4584,2.4517,2.4583,2.4531,2.4546,2.4542,2.4546,2.4548,2.4474,2.4587,2.4774,2.4792,2.455,2.4548,2.4546,0,2.4513,2.4556,2.4616,2.4621,2.4611,2.464,2.4638,2.4637,2.4652,2.4667,2.4676,2.4698,2.4709,2.4726,2.4696,2.4651,2.4766,2.4697,2.4757,2.4758,2.4784,2.4783,2.4976,2.4794,2.4794,2.4794,2.4793,0,2.4665,2.4723,2.4676,2.4713,2.4776,2.4734,2.4797,2.4788,2.4787,2.4821,2.4771,2.4803,2.4762,2.479,2.4767,2.4824,2.483,2.4821,2.4815,2.4826,2.4827,2.4835,2.4826,2.4799,2.4797,2.4797,2.4796,0,2.4829,2.48,2.4861,2.4845,2.4842,2.4889,2.4876,2.4909,2.4891,2.4934,2.4942,2.4915,2.4945,2.4917,2.4947,2.4931,2.5007,2.4988,2.5006,2.5001,2.5062,2.5056,2.5267,2.5292,2.5094,2.5096,2.5098,0,2.4928,2.4971,2.4959,2.4977,2.4977,2.5007,2.5021,2.4982,2.4999,2.5003,2.5036,2.5062,2.5081,2.5133,2.5116,2.5138,2.5119,2.5191,2.5122,2.5132,2.512,2.5117,2.5121,2.5206,2.5208,2.521,2.5212,0,2.5107,2.509,2.5112,2.5129,2.5147,2.5159,2.5166,2.5184,2.5143,2.5165,2.5194,2.5209,2.5238,2.5264,2.5281,2.5278,2.5239,2.5233,2.5248,2.526,2.5268,2.5264,2.5044,2.5229,2.5227,2.5226,2.5225,2.5224,2.5242,2.5276,2.5272,2.5297,2.5298,2.5306,2.5335,2.532,2.5344,2.5363,2.5338,2.5375,2.5374,2.5391,2.5393,2.5421,2.5391,2.5413,2.5419,2.5425,2.5433,2.5264,2.5424,2.5424,2.5423,2.5423,2.5422,0,2.5417,2.5411,2.5435,2.5446,2.5466,2.5424,2.543,2.5449,2.5481,2.5483,2.5502,2.5535,2.556,2.5544,2.5565,2.559,2.5572,2.5597,2.5595,2.5595,2.546,2.5444,2.5611,2.5611,2.5611,2.5611,2.5611,2.5611,2.5511,2.5566,2.5548,2.5602,2.5595,2.5629,2.5636,2.5642,2.5643,2.5682,2.5702,2.569,2.5685,2.5704,2.5725,2.5719,2.5729,2.576,2.5749,2.5623,2.5604,2.5587,2.5572,2.5763,2.5763,2.5881,2.5882,2.5883]},{"header":{"parameterUnit":"m.s-1","parameterCategory":1,"la1":30.2991,"la2":30.254,"lo1":-89.0895,"lo2":-89.0444,"dy":0.0017,"dx":0.0017,"nx":28,"ny":28,"refTime":"2023-08-09T03:00:00:Z","depth":0,"parameterNumber":3,"parameterNumberName":"V-component_of_WINDS"},"data":[0,0,0,0,0,0,0,0,0,0,0,0,0,0,0,0,0,0,0,0,0,0,0,0,0,0,0,0,0,0,0,0,0,0,0,0,0,0,0,0,0,0,0,0,0,0,0,0,0,0,0,0,0,0,0,0,0,0,3.5186,3.5185,0,3.5173,3.5173,3.5173,3.5109,3.5108,3.5106,3.5105,3.5092,3.5093,3.5094,0,0,0,0,0,0,0,0,0,0,0,0,0,3.5154,3.5155,3.5186,3.5185,3.5185,3.5173,3.5173,3.5173,3.5109,3.5108,3.5106,3.5104,3.5092,3.5093,3.5094,0,0,0,0,0,0,0,0,0,0,0,0,0,3.5157,3.5156,3.5186,3.5152,3.5149,3.5173,3.5173,3.5172,3.511,3.5108,3.5105,3.5103,3.5091,3.5093,3.5094,3.5149,0,0,3.5099,3.51,0,0,0,0,0,0,0,0,3.5157,3.5159,3.5157,3.5155,3.5151,3.514,3.5157,3.5165,3.511,3.5125,3.5105,3.5102,3.511,3.511,3.5112,3.5149,3.5148,3.5099,3.51,3.5101,3.5101,0,0,0,0,0,0,0,3.5157,3.5159,3.518,3.5157,3.5154,3.5138,3.5136,3.5158,3.513,3.5123,3.5119,3.5118,3.5108,3.5111,3.5112,3.5148,3.5099,3.5101,3.5102,3.5102,3.5227,3.5229,0,0,0,0,0,0,3.5162,3.5159,3.5181,3.518,3.5149,3.514,3.5138,3.5146,3.513,3.5125,3.512,3.5115,3.5109,3.511,3.5111,3.5172,3.5101,3.5102,3.5103,3.5224,3.5227,3.523,0,0,0,0,0,0,3.5161,3.5164,3.5181,3.5168,3.5169,3.5143,3.5153,3.5147,3.515,3.5127,3.5122,3.5128,3.5108,3.5109,3.514,3.5171,3.5103,3.5105,3.5221,3.5225,3.5228,3.5297,0,0,0,0,0,0,3.5161,3.5165,3.5185,3.5169,3.517,3.5211,3.5155,3.5148,3.5153,3.5146,3.5134,3.5129,3.5106,3.5138,3.5141,3.5172,3.5106,3.5218,3.5223,3.5227,3.5292,3.5302,3.5311,0,0,0,0,0,3.516,3.5206,3.5187,3.519,3.5196,3.5213,3.5213,3.5185,3.5156,3.5176,3.5161,3.513,3.5168,3.5141,3.5145,3.5177,3.5216,3.5222,3.5227,3.5287,3.53,3.5311,0,0,0,0,0,0,3.5227,3.5203,3.5182,3.5224,3.5221,3.5202,3.5227,3.52,3.5205,3.5199,3.5164,3.5162,3.5198,3.5191,3.5162,3.5228,3.5186,3.5193,3.5231,3.5243,3.5253,3.5253,3.5107,0,0,0,0,0,3.5246,3.5262,3.5241,3.528,3.5279,3.5254,3.526,3.5239,3.5234,3.5232,3.522,3.5217,3.5227,3.5235,3.5244,3.5291,3.5286,3.5314,3.5324,3.5332,3.5337,3.536,3.5371,3.5247,3.5247,3.5247,0,0,3.5287,3.5276,3.5288,3.5293,3.5288,3.5304,3.5253,3.5273,3.5285,3.5235,3.5263,3.5254,3.5248,3.5287,3.5303,3.5282,3.5371,3.5339,3.5346,3.5346,3.5366,3.5378,3.5389,3.525,3.525,3.5249,0,0,3.5369,3.5363,3.5394,3.539,3.5383,3.5365,3.5373,3.5358,3.535,3.5377,3.534,3.5353,3.5373,3.537,3.5371,3.5451,3.5421,3.5455,3.5505,3.5528,3.5537,3.5546,3.5572,3.5582,3.546,3.5461,3.5461,0,3.542,3.5444,3.5413,3.5435,3.5438,3.5394,3.5424,3.5422,3.5418,3.5421,3.5397,3.542,3.5413,3.5449,3.5468,3.5471,3.5478,3.5455,3.5538,3.5547,3.5554,3.5579,3.5589,3.5464,3.5464,3.5464,3.5463,0,3.5506,3.5523,3.5549,3.5545,3.5551,3.5577,3.555,3.556,3.5538,3.5523,3.5551,3.5541,3.5546,3.5553,3.5533,3.5586,3.5573,3.5545,3.5502,3.557,3.5593,3.5602,3.547,3.5469,3.5468,3.5467,0,0,3.5629,3.5608,3.5618,3.5615,3.5604,3.5616,3.564,3.5644,3.5652,3.5652,3.567,3.5687,3.566,3.5661,3.564,3.566,3.5721,3.5628,3.5628,3.5644,3.5777,3.5797,3.5809,3.5702,3.5704,3.5705,3.5777,0,3.5706,3.5745,3.5718,3.5761,3.5775,3.5733,3.5754,3.5749,3.5736,3.5745,3.5731,3.5743,3.5707,3.5707,3.5725,3.571,3.5747,3.5705,3.5718,3.5718,3.5718,3.5821,3.5842,3.591,3.5786,3.5788,3.5789,0,3.58,3.5802,3.5847,3.5831,3.5836,3.5855,3.5856,3.5866,3.586,3.5848,3.5849,3.5822,3.5844,3.5804,3.5832,3.5804,3.5808,3.5801,3.5803,3.5802,3.5756,3.582,3.5932,3.5941,3.5803,3.5802,3.5801,0,3.5883,3.5897,3.5925,3.5924,3.5907,3.5921,3.5914,3.5905,3.5909,3.5911,3.5913,3.5917,3.5919,3.5923,3.5897,3.5871,3.5929,3.5887,3.5919,3.5919,3.5931,3.5931,3.6043,3.5938,3.5938,3.5937,3.5937,0,3.597,3.5998,3.5961,3.5978,3.6009,3.5977,3.6008,3.5997,3.5989,3.6003,3.5968,3.5982,3.5949,3.5959,3.5939,3.5965,3.5967,3.5957,3.5951,3.5959,3.596,3.596,3.5954,3.594,3.5939,3.5939,3.5938,0,3.6066,3.6043,3.607,3.6052,3.6047,3.607,3.6054,3.6069,3.6053,3.6071,3.6073,3.6048,3.6058,3.6033,3.604,3.6027,3.6063,3.6051,3.6065,3.6061,3.6093,3.609,3.6208,3.6221,3.611,3.6111,3.6112,0,3.6123,3.6143,3.6126,3.6132,3.6128,3.6139,3.6142,3.6113,3.6118,3.6111,3.6126,3.6133,3.6137,3.6155,3.6137,3.6142,3.6128,3.6169,3.6128,3.6135,3.6126,3.6124,3.6125,3.6177,3.6178,3.6179,3.618,0,3.6224,3.6211,3.6217,3.6219,3.6224,3.6225,3.6223,3.623,3.6198,3.6206,3.6215,3.6218,3.6224,3.6231,3.6231,3.6224,3.6197,3.6193,3.62,3.6208,3.6214,3.6209,3.6086,3.619,3.6189,3.6188,3.6188,3.6187,3.63,3.6316,3.6306,3.6314,3.6309,3.6307,3.6319,3.6305,3.6312,3.6314,3.6296,3.6309,3.6301,3.6299,3.6294,3.6304,3.6285,3.6296,3.6299,3.6301,3.6306,3.6214,3.6304,3.6304,3.6304,3.6303,3.6303,0,3.6398,3.6389,3.6397,3.6394,3.64,3.6374,3.637,3.6376,3.6388,3.6382,3.6387,3.6397,3.6403,3.6386,3.6389,3.64,3.6387,3.6402,3.64,3.6398,3.6323,3.6316,3.6412,3.6412,3.6412,3.6412,3.6412,3.6412,3.6449,3.6473,3.6459,3.648,3.6471,3.6483,3.6483,3.6481,3.6476,3.6489,3.6494,3.6482,3.6472,3.6474,3.6479,3.6473,3.6475,3.6494,3.6484,3.6414,3.6404,3.6394,3.6386,3.6495,3.6496,3.6558,3.6559,3.6559]}]]